星链-35717(STARLINK-35717)

导读

STARLINK-35861是美国太空探索技术公司(SpaceX)星链星座的卫星,星链旨在构建全球卫星互联网,为全球提供高速低延迟网络服务。该卫星于2025年11月6日在美国发射,属于星链星座的批量组网卫星,将进一步扩充星链星座规模,提升全球卫星互联网的覆盖与服务能力。

Basic Information
目录编号:
66355
目录名称:
STARLINK-35861
国际标识:
2025-254H
轨道中心:
EARTH
卫星名称:
星链-35717
卫星全名:
星链-35717(STARLINK-35717)
卫星状态:
在轨 (已飞行219 天)
发射日期:
2025-11-06 UTC
国别 :
美国 (US)
星等 :
--
Orbit Information
数据来源 国际轨道数据 AOE轨道数据
星历时间 2026-06-12T14:32:55+0800
1天前
查看轨道信息
2026-06-11T06:00:00+0800
2天前
查看轨道信息
半长轴 6853.302km 6853.39km
偏心率 0.0001203 0.0001319
轨道倾角 53.156° 53.158°
近地点辐角 46.363° 73.586°
升交点赤经 153.342° 159.648°
平近点角 313.747° 11.482°
近地点 474.34km 474.349km
远地点 475.99km 476.157km
周期 94.104分钟 94.106分钟
每日圈数 15.302169 15.301874
Detailed Information
固有亮度:
5
最大亮度:
2.5
卫星平台:
Starlink V1.0
覆盖范围:
全球
运营商:
太空探索技术公司
运营商所在国:
美国
制造商(研发单位):
太空探索技术公司
制造商所在国:
美国
使用方式:
暂无
Satellite Introduction
Starlink 计划是 SpaceX 推出的全球卫星互联网项目,通过发射低轨道卫星,为全球尤其是偏远地区提供高速、低延迟的互联网服务。自 2019 年起,Starlink 已部署数千颗卫星,旨在缩小全球数字鸿沟,推动互联网普及。该项目还为军事、航空等行业提供通信支持,带来广泛经济效益。
2D Orbit Map
3D Orbit Map
Orbit Altitude Analysis Chart
Orbit Inclination Analysis Chart
Orbit Comprehensive Analysis Chart
View Comprehensive Chart